Location: Paddlesworth
(51.1000°N, 1.1333°E)
Time: 21:26:04
(UTC+00:00)

USA 245 - Visible Passes

Search period start: 19 September 2021 00:00
Search period end: 29 September 2021 00:00
Orbit: 265 x 1018 km, 97.9° (Epoch: 18 September)

Date Brightness Start Highest point End Pass type
(mag) Time Alt. Az. Time Alt. Az. Time Alt. Az.
19 Sep 4.4 20:17:06 31° NE 20:17:06 31° NE 20:20:17 10° N visible
19 Sep 5.9 21:54:43 18° WNW 21:54:43 18° WNW 21:56:30 10° NW visible
20 Sep 4.2 20:41:21 42° NNE 20:41:21 42° NNE 20:44:34 10° N visible
20 Sep 6.4 22:18:58 12° WNW 22:18:58 12° WNW 22:19:46 10° NW visible
21 Sep 5.3 19:27:58 14° ENE 19:28:31 15° NE 19:30:58 10° NNE visible
21 Sep 4.6 21:05:35 41° NNW 21:05:35 41° NNW 21:08:41 10° NNW visible
22 Sep 4.9 19:52:11 23° NE 19:52:11 23° NE 19:55:41 10° N visible
22 Sep 5.2 21:29:48 31° NW 21:29:48 31° NW 21:32:38 10° NNW visible
23 Sep 4.5 20:16:23 34° NE 20:16:23 34° NE 20:20:06 10° N visible
23 Sep 5.9 21:54:00 22° WNW 21:54:00 22° WNW 21:56:22 10° NNW visible
24 Sep 5.8 19:02:58 10° ENE 19:04:16 11° NE 19:05:38 10° NNE visible
24 Sep 4.3 20:40:35 45° NNE 20:40:35 45° NNE 20:44:19 10° N visible
24 Sep 6.3 22:18:12 15° WNW 22:18:12 15° WNW 22:19:46 10° NW visible
25 Sep 5.4 19:27:10 17° ENE 19:27:44 17° NE 19:30:52 10° NNE visible
25 Sep 4.6 21:04:47 45° NNW 21:04:47 45° NNW 21:08:23 10° NNW visible
26 Sep 5.0 19:51:21 25° NE 19:51:21 25° NE 19:55:25 10° N visible
26 Sep 5.3 21:28:58 34° NW 21:28:58 34° NW 21:32:17 10° NNW visible
27 Sep 4.6 20:15:32 37° NE 20:15:32 37° NE 20:19:43 10° N visible
27 Sep 5.8 21:53:08 25° WNW 21:53:08 25° WNW 21:56:01 10° NNW visible
28 Sep 5.8 19:02:05 12° ENE 19:03:21 13° NE 19:05:42 10° NNE visible
28 Sep 4.5 20:39:41 48° NNE 20:39:41 48° NNE 20:43:51 10° N visible
28 Sep 6.3 22:17:18 17° WNW 22:17:18 17° WNW 22:19:29 10° NW visible
